GW5319 Weather Reports


time (UTC)temp
C
wind
direction
speed
KPH
gust
KPH
rain 1hr
cm
rain 24hr
cm
rain mn
cm
humidity
%
barometer
mb
20260507210111 13 0 0.0 0.0 0.00 0.23 0.23 92 1015.4
20260507204600 13 0 0.0 0.0 0.00 0.43 0.23 91 1015.2
20260507203112 13 0 0.0 0.0 0.00 0.43 0.23 91 1015.2
20260507201609 13 0 0.0 0.0 0.00 0.43 0.23 91 1015.3
20260507200056 13 0 0.0 0.0 0.00 0.43 0.23 91 1015.3
20260507194554 13 0 0.0 0.0 0.00 0.97 0.23 91 1015.1
20260507193055 14 0 0.0 0.0 0.00 0.97 0.23 90 1014.9
20260507191553 14 0 0.0 0.0 0.00 0.97 0.23 89 1014.9
20260507190100 15 0 0.0 0.0 0.00 0.97 0.23 88 1014.7
20260507184554 15 0 0.0 0.0 0.00 0.97 0.23 88 1014.5
20260507183056 15 0 0.0 0.0 0.00 0.97 0.23 86 1014.4
20260507181556 16 0 0.0 0.0 0.00 0.97 0.23 85 1014.2
20260507180059 16 0 0.0 1.6 0.00 0.97 0.23 84 1014.1
20260507174605 17 275 0.0 1.6 0.00 1.12 0.23 81 1014.1
20260507173054 17 0 0.0 6.4 0.00 1.12 0.23 81 1014.1
20260507171604 17 227 0.0 4.8 0.00 1.12 0.23 80 1014.2
20260507170055 17 0 0.0 3.2 0.00 1.12 0.23 80 1014.2
20260507164553 17 281 3.2 8.0 0.00 1.22 0.23 79 1014.2
20260507163054 17 286 0.0 4.8 0.00 1.22 0.23 79 1014.1
20260507161556 17 252 1.6 4.8 0.00 1.22 0.23 77 1014.0
20260507160056 17 0 0.0 3.2 0.00 1.22 0.23 78 1014.0
20260507154557 17 338 1.6 4.8 0.00 1.22 0.23 77 1014.0
20260507153101 17 0 1.6 4.8 0.00 1.22 0.23 77 1014.1
20260507151555 17 304 4.8 9.7 0.00 1.22 0.23 77 1014.1
20260507150053 17 276 6.4 11.3 0.00 1.22 0.23 77 1014.2
20260507144554 18 306 3.2 11.3 0.00 1.22 0.23 78 1014.4
20260507143056 18 317 3.2 8.0 0.00 1.22 0.23 75 1014.4
20260507141559 18 319 1.6 8.0 0.00 1.22 0.23 74 1014.3
20260507140106 18 285 0.0 9.7 0.00 1.22 0.23 74 1014.4
20260507134552 18 321 3.2 8.0 0.00 1.22 0.23 72 1014.5
20260507133101 18 319 6.4 11.3 0.00 1.22 0.23 73 1014.6
20260507131554 18 314 3.2 14.5 0.00 1.22 0.23 73 1014.7
20260507130112 18 280 6.4 9.7 0.00 1.22 0.23 72 1014.7
20260507124631 18 337 4.8 8.0 0.00 1.22 0.23 74 1014.9
20260507123053 18 318 4.8 8.0 0.00 1.22 0.23 75 1014.9
20260507121554 18 310 3.2 11.3 0.00 1.22 0.23 75 1015.0
20260507120054 18 355 0.0 8.0 0.00 1.22 0.23 78 1015.0
20260507114610 17 327 0.0 3.2 0.00 1.22 0.23 80 1015.1
20260507113057 17 348 1.6 4.8 0.00 1.22 0.23 79 1015.2
20260507111553 16 0 0.0 3.2 0.00 1.22 0.23 87 1015.3
20260507110057 16 0 0.0 1.6 0.00 1.22 0.23 87 1015.4
20260507104556 16 0 0.0 3.2 0.08 1.22 0.23 88 1015.4
20260507103050 15 0 0.0 3.2 0.10 1.22 0.23 89 1015.5
20260507101557 15 244 1.6 9.7 0.13 1.22 0.23 89 1015.6
20260507100058 15 221 1.6 6.4 0.15 1.19 0.20 89 1015.7
20260507094552 15 270 1.6 8.0 0.10 1.12 0.15 88 1015.7
20260507093054 15 252 3.2 9.7 0.08 1.09 0.10 88 1015.5
20260507091558 15 234 1.6 8.0 0.05 1.04 0.08 88 1015.4
20260507090105 15 276 3.2 9.7 0.03 1.02 0.05 86 1015.3
20260507084600 15 0 1.6 12.9 0.00 1.02 0.03 86 1015.2
20260507083106 16 282 1.6 6.4 0.00 1.02 0.03 86 1015.0
20260507081713 16 239 3.2 12.9 0.00 0.99 0.00 85 1015.0
20260507080103 16 248 3.2 14.5 0.00 0.99 0.00 85 1014.9
20260507074607 16 244 3.2 9.7 0.00 0.99 0.00 87 1014.6
20260507073102 15 155 1.6 11.3 0.00 0.99 0.00 89 1014.6
20260507071555 15 209 4.8 11.3 0.00 0.99 0.00 88 1014.6
20260507070107 15 245 4.8 6.4 0.00 0.99 0.00 90 1014.5
20260507064610 15 259 1.6 6.4 0.00 0.99 0.00 91 1014.3
20260507063059 15 192 4.8 9.7 0.00 0.97 0.00 91 1014.2
20260507061602 15 239 3.2 6.4 0.00 0.97 0.00 93 1014.1
20260507060057 14 208 1.6 6.4 0.00 0.97 0.00 93 1014.0
20260507054558 14 221 3.2 4.8 0.00 0.97 0.00 94 1013.9
20260507053057 15 0 1.6 4.8 0.00 0.97 0.00 94 1013.7
20260507051601 14 198 3.2 4.8 0.00 0.97 0.00 94 1013.7
20260507044559 13 0 0.0 4.8 0.00 0.97 0.00 94 1013.4
20260507043057 13 0 0.0 0.0 0.00 0.97 0.00 94 1013.2
20260507041558 13 0 0.0 0.0 0.00 0.97 0.00 93 1013.0
20260507040110 13 0 0.0 0.0 0.00 0.97 0.00 93 1013.0
20260507034559 13 0 0.0 0.0 0.00 0.97 0.00 94 1012.9
20260507033102 13 0 0.0 0.0 0.00 0.97 0.00 94 1012.7
20260507031618 13 0 0.0 0.0 0.00 0.97 0.00 94 1012.7
20260507030053 13 0 0.0 0.0 0.00 0.97 0.00 93 1012.5
20260507024556 13 0 0.0 0.0 0.00 0.97 0.00 93 1012.7
20260507023053 13 0 0.0 0.0 0.00 0.97 0.00 93 1012.6
20260507021554 13 0 0.0 0.0 0.00 0.97 0.00 93 1012.6
20260507020059 14 0 0.0 0.0 0.00 0.97 0.00 93 1012.4
20260507014603 14 0 0.0 0.0 0.00 0.97 0.00 93 1012.4
20260507013114 14 0 0.0 0.0 0.00 0.97 0.00 93 1012.3
20260507011553 15 0 0.0 0.0 0.00 0.97 0.00 93 1012.4
20260507010104 15 0 0.0 0.0 0.00 0.97 0.00 93 1012.3
20260507004554 14 0 0.0 0.0 0.00 0.97 0.00 93 1012.2
20260507003056 14 0 0.0 0.0 0.00 0.97 0.00 93 1012.2
20260507001556 15 0 0.0 0.0 0.00 0.97 0.00 93 1012.1
20260507000054 15 0 0.0 0.0 0.00 0.97 0.00 92 1012.2
20260506234554 15 0 0.0 0.0 0.00 0.97 0.00 92 1012.3
20260506233106 15 0 0.0 1.6 0.00 0.97 0.00 92 1012.4
20260506231600 15 0 0.0 1.6 0.00 0.97 0.00 92 1012.2
20260506230105 15 325 0.0 1.6 0.00 0.97 0.00 92 1012.0
20260506224552 15 0 0.0 1.6 0.00 0.97 0.00 92 1012.1
20260506223056 15 0 0.0 1.6 0.00 0.97 0.00 92 1012.1
20260506221558 15 0 0.0 1.6 0.00 0.97 0.00 92 1012.2
20260506220059 15 0 3.2 9.7 0.00 0.97 0.00 91 1012.3
20260506214601 15 332 0.0 4.8 0.03 0.97 0.97 91 1012.3
20260506213055 15 0 0.0 0.0 0.13 0.97 0.97 91 1012.3
20260506211607 15 335 0.0 6.4 0.18 0.97 0.97 91 1012.3